FW6665 Weather Reports


Display with metric or nautical units.
time (UTC)temp
F
wind
direction
speed
MPH
gust
MPH
rain 1hr
in
rain 24hr
in
rain mn
in
humidity
%
barometer
mb
20260508141205 66 118 1.0 3.0 0.00 0.00 0.00 56 1013.9
20260508140704 66 118 1.0 4.0 0.00 0.00 0.00 57 1013.9
20260508140205 65 120 0.0 4.0 0.00 0.00 0.00 59 1013.9
20260508135705 65 121 0.0 4.0 0.00 0.00 0.00 57 1014.0
20260508135204 65 114 0.0 3.0 0.00 0.00 0.00 57 1014.1
20260508134704 66 114 0.0 3.0 0.00 0.00 0.00 57 1014.0
20260508134204 66 114 1.0 2.0 0.00 0.00 0.00 56 1014.2
20260508133203 66 100 1.0 3.0 0.00 0.00 0.00 58 1014.2
20260508132704 65 100 0.0 3.0 0.00 0.00 0.00 58 1014.2
20260508132205 65 100 1.0 3.0 0.00 0.00 0.00 57 1014.2
20260508131704 65 99 0.0 5.0 0.00 0.00 0.00 58 1014.3
20260508131204 65 99 0.0 5.0 0.00 0.00 0.00 58 1014.3
20260508130204 65 99 1.0 2.0 0.00 0.00 0.00 59 1014.2
20260508125706 64 99 1.0 2.0 0.00 0.00 0.00 60 1014.2
20260508124704 64 100 0.0 2.0 0.00 0.00 0.00 61 1014.3
20260508124204 63 100 0.0 2.0 0.00 0.00 0.00 62 1014.3
20260508123704 63 100 1.0 2.0 0.00 0.00 0.00 61 1014.3
20260508123206 63 100 0.0 2.0 0.00 0.00 0.00 61 1014.3
20260508122705 63 100 1.0 3.0 0.00 0.00 0.00 61 1014.4
20260508122205 63 100 0.0 3.0 0.00 0.00 0.00 61 1014.3
20260508121704 63 100 1.0 2.0 0.00 0.00 0.00 59 1014.3
20260508120704 63 100 0.0 3.0 0.00 0.00 0.00 57 1014.5
20260508120205 63 100 1.0 3.0 0.00 0.00 0.00 57 1014.3
20260508115205 63 104 0.0 2.0 0.00 0.00 0.00 55 1014.4
20260508114705 63 104 0.0 4.0 0.00 0.00 0.00 56 1014.3
20260508114205 63 104 0.0 4.0 0.00 0.00 0.00 56 1014.3
20260508113205 63 104 1.0 5.0 0.00 0.00 0.00 56 1014.3
20260508112705 63 104 0.0 5.0 0.00 0.00 0.00 59 1014.2
20260508112205 63 104 2.0 3.0 0.00 0.00 0.00 56 1014.1
20260508111204 64 109 1.0 2.0 0.00 0.00 0.00 56 1014.2
20260508110704 64 107 0.0 2.0 0.00 0.00 0.00 58 1014.3
20260508110204 64 107 0.0 4.0 0.00 0.00 0.00 58 1014.4
20260508105205 64 107 1.0 5.0 0.00 0.00 0.00 56 1014.4
20260508104205 64 107 2.0 3.0 0.00 0.00 0.00 55 1014.4
20260508103705 64 100 1.0 3.0 0.00 0.00 0.00 58 1014.3
20260508103205 64 100 0.0 3.0 0.00 0.00 0.00 59 1014.3
20260508102705 63 100 0.0 5.0 0.00 0.00 0.00 60 1014.4
20260508101705 63 103 2.0 5.0 0.00 0.00 0.00 57 1014.4
20260508101204 64 103 3.0 5.0 0.00 0.00 0.00 56 1014.4
20260508100704 65 94 2.0 5.0 0.00 0.00 0.00 57 1014.5
20260508100205 65 116 1.0 5.0 0.00 0.00 0.00 56 1014.4
20260508095705 65 118 2.0 4.0 0.00 0.00 0.00 57 1014.4
20260508095204 65 106 0.0 3.0 0.00 0.00 0.00 59 1014.3
20260508094704 65 106 1.0 3.0 0.00 0.00 0.00 59 1014.4
20260508093704 64 107 1.0 5.0 0.00 0.00 0.00 62 1014.4
20260508093204 63 109 2.0 6.0 0.00 0.00 0.00 61 1014.4
20260508092704 63 114 2.0 6.0 0.00 0.00 0.00 62 1014.4
20260508092210 63 117 2.0 6.0 0.00 0.00 0.00 62 1014.4
20260508091704 63 118 2.0 7.0 0.00 0.00 0.00 63 1014.3
20260508091204 62 133 1.0 7.0 0.00 0.00 0.00 66 1014.5
20260508090705 62 133 1.0 6.0 0.00 0.00 0.00 66 1014.5
20260508090204 61 109 2.0 6.0 0.00 0.00 0.00 68 1014.5
20260508085704 61 114 1.0 6.0 0.00 0.00 0.00 70 1014.4
20260508084705 59 103 1.0 5.0 0.00 0.00 0.00 76 1014.6
20260508084204 58 103 2.0 5.0 0.00 0.00 0.00 77 1014.5
20260508083705 58 109 2.0 4.0 0.00 0.00 0.00 78 1014.6
20260508083203 57 103 0.0 4.0 0.00 0.00 0.00 81 1014.6
20260508082705 56 99 1.0 4.0 0.00 0.00 0.00 81 1014.6
20260508081703 56 93 1.0 3.0 0.00 0.00 0.00 83 1014.5
20260508081204 56 92 1.0 3.0 0.00 0.00 0.00 83 1014.4
20260508080708 55 97 1.0 3.0 0.00 0.00 0.00 82 1014.3
20260508080204 55 96 0.0 2.0 0.00 0.00 0.00 80 1014.3
20260508075204 54 96 0.0 4.0 0.00 0.00 0.00 77 1014.3
20260508074704 53 96 0.0 2.0 0.00 0.00 0.00 77 1014.4
20260508074209 53 94 0.0 2.0 0.00 0.00 0.00 77 1014.4
20260508073704 53 94 0.0 2.0 0.00 0.00 0.00 76 1014.4
20260508073206 52 93 0.0 2.0 0.00 0.00 0.00 74 1014.4
20260508072704 52 93 0.0 2.0 0.00 0.00 0.00 73 1014.4
20260508070204 50 93 0.0 1.0 0.00 0.00 0.00 70 1014.4
20260508065705 50 93 0.0 1.0 0.00 0.00 0.00 71 1014.4
20260508065205 50 93 0.0 1.0 0.00 0.00 0.00 71 1014.4
20260508064704 49 93 0.0 1.0 0.00 0.00 0.00 71 1014.3
20260508064204 49 93 0.0 1.0 0.00 0.00 0.00 72 1014.3
20260508063705 49 93 0.0 1.0 0.00 0.00 0.00 72 1014.2
20260508063204 49 93 0.0 1.0 0.00 0.00 0.00 71 1014.3
20260508062706 49 93 0.0 1.0 0.00 0.00 0.00 71 1014.2
20260508062205 48 94 0.0 1.0 0.00 0.00 0.00 71 1014.2
20260508061704 48 94 0.0 1.0 0.00 0.00 0.00 71 1014.2
20260508060705 47 94 0.0 1.0 0.00 0.00 0.00 72 1014.1
20260508060205 47 94 0.0 1.0 0.00 0.00 0.00 72 1014.2
20260508055704 47 94 0.0 1.0 0.00 0.00 0.00 73 1014.1
20260508055205 47 94 0.0 1.0 0.00 0.00 0.00 73 1014.1
20260508054704 47 94 0.0 1.0 0.00 0.00 0.00 74 1014.1
20260508054207 46 94 0.0 1.0 0.00 0.00 0.00 74 1014.0
20260508053705 46 94 0.0 1.0 0.00 0.00 0.00 74 1013.9
20260508053205 46 94 0.0 1.0 0.00 0.00 0.00 75 1014.0
20260508052704 46 94 0.0 0.0 0.00 0.00 0.00 75 1013.9
20260508052204 46 94 0.0 0.0 0.00 0.00 0.00 74 1013.7
20260508051206 45 94 0.0 0.0 0.00 0.00 0.00 74 1013.8
20260508050704 45 94 0.0 0.0 0.00 0.00 0.00 74 1013.8
20260508050204 45 94 0.0 0.0 0.00 0.00 0.00 75 1013.7
20260508045704 44 94 0.0 0.0 0.00 0.00 0.00 75 1013.7
20260508045204 44 94 0.0 0.0 0.00 0.00 0.00 76 1013.7
20260508044204 44 94 0.0 0.0 0.00 0.00 0.00 78 1013.7
20260508043704 44 94 0.0 0.0 0.00 0.00 0.00 78 1013.6
20260508043204 44 94 0.0 0.0 0.00 0.00 0.00 78 1013.7
20260508042704 44 94 0.0 0.0 0.00 0.00 0.00 78 1013.7
20260508042231 44 94 0.0 0.0 0.00 0.00 0.00 79 1013.6
20260508041705 44 94 0.0 0.0 0.00 0.00 0.00 79 1013.6
20260508041208 44 94 0.0 0.0 0.00 0.00 0.00 79 1013.7
20260508040704 44 94 0.0 0.0 0.00 0.00 0.00 78 1013.7
20260508040205 43 94 0.0 0.0 0.00 0.00 0.00 79 1013.7
20260508035205 43 94 0.0 0.0 0.00 0.00 0.00 80 1013.6
20260508034705 43 94 0.0 0.0 0.00 0.00 0.00 80 1013.6
20260508034203 43 94 0.0 0.0 0.00 0.00 0.00 80 1013.6
20260508033704 43 94 0.0 0.0 0.00 0.00 0.00 80 1013.6
20260508033203 43 94 0.0 0.0 0.00 0.00 0.00 80 1013.6
20260508031704 43 94 0.0 0.0 0.00 0.00 0.00 81 1013.7
20260508031205 43 94 0.0 0.0 0.00 0.00 0.00 81 1013.5
20260508030704 43 94 0.0 0.0 0.00 0.00 0.00 81 1013.7
20260508025705 43 94 0.0 0.0 0.00 0.00 0.00 82 1013.6
20260508025205 43 94 0.0 0.0 0.00 0.00 0.00 82 1013.6
20260508024204 43 94 0.0 0.0 0.00 0.00 0.00 82 1013.6
20260508023705 43 94 0.0 0.0 0.00 0.00 0.00 82 1013.6
20260508023205 43 94 0.0 0.0 0.00 0.00 0.00 83 1013.6
20260508022704 43 94 0.0 0.0 0.00 0.00 0.00 83 1013.6
20260508022204 43 94 0.0 0.0 0.00 0.00 0.00 83 1013.5
20260508021706 43 94 0.0 0.0 0.00 0.00 0.00 83 1013.5
20260508021209 43 94 0.0 0.0 0.00 0.00 0.00 83 1013.5
20260508020704 43 94 0.0 0.0 0.00 0.00 0.00 83 1013.6
20260508015706 43 94 0.0 0.0 0.00 0.00 0.00 84 1013.6
20260508015208 43 94 0.0 0.0 0.00 0.00 0.00 84 1013.7
20260508014704 44 94 0.0 0.0 0.00 0.00 0.00 84 1013.6
20260508013704 44 94 0.0 0.0 0.00 0.00 0.00 84 1013.7
20260508012705 44 94 0.0 0.0 0.00 0.00 0.00 84 1013.7
20260508012205 44 94 0.0 0.0 0.00 0.00 0.00 84 1013.7
20260508011705 45 94 0.0 0.0 0.00 0.00 0.00 84 1013.7
20260508011204 45 94 0.0 0.0 0.00 0.00 0.00 84 1013.7
20260508010704 45 94 0.0 0.0 0.00 0.00 0.00 84 1013.7
20260508010204 45 94 0.0 0.0 0.00 0.00 0.00 84 1013.8
20260508005205 45 94 0.0 0.0 0.00 0.00 0.00 84 1013.7
20260508004704 46 94 0.0 0.0 0.00 0.00 0.00 84 1013.8
20260508004205 46 94 0.0 0.0 0.00 0.00 0.00 84 1013.7
20260508003706 46 94 0.0 0.0 0.00 0.00 0.00 84 1013.9
20260508003205 46 94 0.0 0.0 0.00 0.00 0.00 84 1013.8
20260508002205 47 94 0.0 0.0 0.00 0.00 0.00 84 1013.8
20260508001706 47 94 0.0 0.0 0.00 0.00 0.00 84 1013.9
20260508000704 47 94 0.0 0.0 0.00 0.00 0.00 84 1013.8
20260508000205 47 94 0.0 0.0 0.00 0.00 0.00 84 1013.8
20260507235205 48 94 0.0 0.0 0.00 0.00 0.00 84 1013.8
20260507234705 48 94 0.0 0.0 0.00 0.00 0.00 84 1013.8
20260507234207 48 94 0.0 0.0 0.00 0.00 0.00 83 1013.9
20260507233708 49 94 0.0 0.0 0.00 0.00 0.00 83 1013.9
20260507232704 49 94 0.0 0.0 0.00 0.00 0.00 83 1014.0
20260507232205 49 94 0.0 0.0 0.00 0.00 0.00 83 1014.1
20260507231704 50 94 0.0 0.0 0.00 0.00 0.00 82 1014.2
20260507231204 50 94 0.0 0.0 0.00 0.00 0.00 83 1014.1
20260507230705 50 94 0.0 0.0 0.00 0.00 0.00 83 1014.2
20260507225704 51 94 0.0 0.0 0.00 0.00 0.00 83 1014.2
20260507224705 51 94 0.0 1.0 0.00 0.00 0.00 82 1014.3
20260507224204 51 94 0.0 1.0 0.00 0.00 0.00 82 1014.3
20260507223204 51 94 0.0 1.0 0.00 0.00 0.00 82 1014.3
20260507222704 51 94 0.0 0.0 0.00 0.00 0.00 82 1014.3
20260507222205 51 94 0.0 0.0 0.00 0.00 0.00 82 1014.3
20260507221704 51 94 0.0 0.0 0.00 0.00 0.00 82 1014.2
20260507221205 51 94 0.0 0.0 0.00 0.00 0.00 82 1014.3
20260507220705 51 94 0.0 1.0 0.00 0.00 0.00 82 1014.3
20260507220204 52 94 0.0 1.0 0.00 0.00 0.00 82 1014.3
20260507215204 52 94 0.0 1.0 0.00 0.00 0.00 82 1014.3
20260507214708 52 94 0.0 2.0 0.00 0.00 0.00 82 1014.2
20260507214203 52 94 0.0 2.0 0.00 0.00 0.00 82 1014.2
20260507213705 52 94 0.0 2.0 0.00 0.00 0.00 81 1014.3
20260507213204 52 94 0.0 2.0 0.00 0.00 0.00 81 1014.4
20260507212706 52 94 0.0 2.0 0.00 0.00 0.00 82 1014.3
20260507212204 52 94 0.0 1.0 0.00 0.00 0.00 81 1014.3
20260507211706 52 94 0.0 1.0 0.00 0.00 0.00 81 1014.2
20260507211204 52 94 0.0 1.0 0.00 0.00 0.00 81 1014.2
20260507210704 52 94 0.0 1.0 0.00 0.00 0.00 81 1014.2
20260507210204 52 94 0.0 1.0 0.00 0.00 0.00 80 1014.3
20260507205704 52 94 0.0 1.0 0.00 0.00 0.00 80 1014.1
20260507205204 52 94 0.0 1.0 0.00 0.00 0.00 79 1014.1
20260507204704 52 94 0.0 1.0 0.00 0.00 0.00 79 1014.0
20260507204204 52 94 0.0 1.0 0.00 0.00 0.00 79 1014.0
20260507203706 52 94 0.0 1.0 0.00 0.00 0.00 79 1014.0
20260507203204 53 94 0.0 1.0 0.00 0.00 0.00 78 1013.9
20260507202709 53 94 0.0 1.0 0.00 0.00 0.00 78 1013.9
20260507202204 53 94 0.0 1.0 0.00 0.00 0.00 78 1013.8
20260507201703 53 94 0.0 2.0 0.00 0.00 0.00 78 1013.8
20260507201205 53 94 0.0 2.0 0.00 0.00 0.00 78 1013.8
20260507200204 53 94 0.0 2.0 0.00 0.00 0.00 77 1013.7
20260507195704 53 94 0.0 2.0 0.00 0.00 0.00 77 1013.6
20260507194704 54 94 0.0 1.0 0.00 0.00 0.00 76 1013.5
20260507194203 54 94 0.0 2.0 0.00 0.00 0.00 76 1013.5
20260507193705 54 94 0.0 3.0 0.00 0.00 0.00 75 1013.5
20260507193204 54 94 0.0 3.0 0.00 0.00 0.00 75 1013.3
20260507192703 54 94 0.0 3.0 0.00 0.00 0.00 75 1013.5
20260507192205 54 94 1.0 3.0 0.00 0.00 0.00 75 1013.4
20260507191204 54 94 0.0 3.0 0.00 0.00 0.00 74 1013.3
20260507190705 55 94 1.0 2.0 0.00 0.00 0.00 74 1013.3
20260507185705 55 100 0.0 4.0 0.00 0.00 0.00 74 1013.4
20260507184704 55 99 1.0 5.0 0.00 0.00 0.00 74 1013.4
20260507184204 55 99 1.0 5.0 0.00 0.00 0.00 74 1013.3
20260507183704 55 96 1.0 4.0 0.00 0.00 0.00 73 1013.3
20260507183206 55 97 0.0 3.0 0.00 0.00 0.00 73 1013.3
20260507182704 56 99 0.0 3.0 0.00 0.00 0.00 73 1013.4
20260507182204 56 99 0.0 3.0 0.00 0.00 0.00 73 1013.3
20260507181705 56 99 0.0 4.0 0.00 0.00 0.00 72 1013.3
20260507181205 56 90 0.0 4.0 0.00 0.00 0.00 72 1013.3
20260507180704 56 92 1.0 5.0 0.00 0.00 0.00 72 1013.3
20260507180204 56 97 1.0 5.0 0.00 0.00 0.00 71 1013.3
20260507175704 56 97 2.0 5.0 0.00 0.00 0.00 71 1013.2
20260507175204 56 103 2.0 7.0 0.00 0.00 0.00 71 1013.2
20260507174714 56 100 1.0 7.0 0.00 0.00 0.00 71 1013.2
20260507173704 56 110 3.0 6.0 0.00 0.00 0.00 69 1013.0
20260507172705 57 93 1.0 5.0 0.00 0.00 0.00 69 1013.0
20260507172203 57 75 2.0 6.0 0.00 0.00 0.00 68 1013.1
20260507171205 58 103 2.0 6.0 0.00 0.00 0.00 67 1013.0
20260507170705 58 97 2.0 6.0 0.00 0.00 0.00 67 1013.0
20260507170204 58 97 2.0 5.0 0.00 0.00 0.00 68 1013.1
20260507165705 58 110 1.0 7.0 0.00 0.00 0.00 69 1013.0
20260507165203 57 106 2.0 7.0 0.00 0.00 0.00 68 1013.0
20260507164705 57 107 3.0 7.0 0.00 0.00 0.00 67 1013.0
20260507164205 57 73 2.0 5.0 0.00 0.00 0.00 69 1013.0
20260507163205 57 123 1.0 5.0 0.00 0.00 0.00 67 1012.9
20260507162704 57 120 1.0 5.0 0.00 0.00 0.00 67 1013.1
20260507162204 57 104 1.0 5.0 0.00 0.00 0.00 66 1013.1
20260507161706 58 90 1.0 5.0 0.00 0.00 0.00 67 1013.1
20260507161205 58 90 1.0 5.0 0.00 0.00 0.00 66 1013.1
20260507160205 58 94 2.0 5.0 0.00 0.00 0.00 64 1013.1
20260507155704 59 107 1.0 5.0 0.00 0.00 0.00 64 1013.1
20260507155204 59 92 1.0 4.0 0.00 0.00 0.00 65 1013.1
20260507154705 59 92 1.0 3.0 0.00 0.00 0.00 65 1013.1
20260507154204 59 104 1.0 3.0 0.00 0.00 0.00 64 1013.1
20260507153204 59 103 1.0 6.0 0.00 0.00 0.00 63 1013.1
20260507152704 59 104 2.0 6.0 0.00 0.00 0.00 62 1013.2
20260507152204 59 107 2.0 6.0 0.00 0.00 0.00 63 1013.2
20260507151704 60 121 0.0 4.0 0.00 0.00 0.00 63 1013.1
20260507151208 60 121 1.0 5.0 0.00 0.00 0.00 62 1013.2
20260507150706 60 121 2.0 5.0 0.00 0.00 0.00 61 1013.1
20260507145704 60 166 1.0 3.0 0.00 0.00 0.00 64 1013.1
20260507145205 60 165 1.0 3.0 0.00 0.00 0.00 67 1013.1
20260507144209 58 133 1.0 7.0 0.00 0.00 0.00 66 1013.2
20260507143704 58 134 1.0 7.0 0.00 0.00 0.00 66 1013.1
20260507143209 58 137 0.0 7.0 0.00 0.00 0.00 65 1013.1
20260507142704 58 104 1.0 5.0 0.00 0.00 0.00 63 1013.2
20260507142204 58 89 0.0 4.0 0.00 0.00 0.00 63 1013.3